Location: Campillo
(40.8621°N, 4.2488°W)
Time: 13:11:11
(UTC+00:00)

CZ-4C R/B - Pass Details

Date: 11 May 2021
Orbit: 609 x 1392 km, 63.4° (Epoch: 14 June)

Event Time Altitude Azimuth Distance (km) Brightness Sun altitude
Rises 22:16:23 0° 321° (NW) 3,944 7.0 -25.1°
Reaches altitude 10° 22:18:58 10° 317° (NW) 3,083 6.1 -25.3°
Maximum altitude 22:26:19 55° 242° (WSW) 1,525 3.4 -26.0°
Enters shadow 22:28:58 41° 192° (SSW) 1,848 3.5 -26.2°
